Location: Kikino
(54.4440°N, 112.0940°W)
Time: 19:20:27
(UTC+00:00)

A-11 Canister half - Pass Details

Date: 27 May 2024
Orbit: 1525 x 1683 km, 47.3° (Epoch: 12 June)

Event Time Altitude Azimuth Distance (km) Brightness Sun altitude
Rises 03:10:59 0° 213° (SSW) 4,669 11.5 3.2°
Reaches altitude 10° 03:14:21 10° 205° (SSW) 3,697 10.9 2.8°
Maximum altitude 03:22:20 33° 145° (SE) 2,371 9.6 1.9°
Drops below altitude 10° 03:30:30 10° 86° (E) 3,791 10.6 0.9°
Sets 03:33:59 0° 78° (ENE) 4,801 11.2 0.5°
